OneWeb SL0185

operational
NORAD ID: 48220 Int'l Des: 2021-031 Owner: ONEWEBN Country: UK Constellation: oneweb
LEOCIRCULARPOLARONEWEB_TYPE

Über OneWeb SL0185

Beschreibung wird geladen...

Live-Position

3D-Globus wird geladen...

Nächste Überflüge

Höhenverlauf

Altitude vs Time

uPlot chart will show altitude changes over time

Zweizeiliger Elementsatz

1 48220U 21031L 25350.91575031 .00000147 00000-0 36214-3 0 9990
2 48220 87.9005 326.0042 0001462 93.9743 266.1554 13.14504017224308
Epoch: 16. Dez. 2025 • Age: 13 hours

Aktueller Status

Höhe 1217.8 km
Geschwindigkeit 7.25 km/s
Subsatellitenpunkt 76.22°N, 80.83°E
Startdatum 25. Apr. 2021
Alter 4.6 years
Typ internet

Technische Details

Klassifizierung Payload
Masse 148.00 kg
Trockenmasse 140.00 kg
Gesamtmasse 148.00 kg
Länge 1.30 m
Durchmesser 1.00 m
Spannweite 5.00 m
Form Trapezoid+2 pan
Hersteller ONEWUS
Bus-Typ ARROW
Phasenstatus In Orbit
Besitzer/Staat ONEWEBN/UK

Große Konstellationen

Loading constellations...